Stations météo

réclame
Mon MeteoGroup
Braemar, Grande-Bretagne (99089): Température de l'air & dewpoint: 16.04.2019 15:00:00 - 22.04.2019 15:00:00 (BST)Braemar, Grande-Bretagne (99089): Température de l'air -20cm & Température de l'air -100cm: 16.04.2019 15:00:00 - 22.04.2019 15:00:00 (BST)Braemar, Grande-Bretagne (99089): Quantités de précipitations: 16.04.2019 15:00:00 - 22.04.2019 15:00:00 (BST)
Date & Time tt [°C] td [°C] tt -20cm [°C] tt -100cm [°C] rr [mm]
22.04.2019 15:00:00 17,8 4,1 - - 0,0
22.04.2019 14:00:00 18,6 3,4 - - 0,0
22.04.2019 13:00:00 18,4 3,7 - - 0,0
22.04.2019 12:00:00 17,7 4,0 - - 0,0
22.04.2019 11:00:00 17,1 4,9 - - 0,0
22.04.2019 10:00:00 15,8 4,5 9,0 6,9 0,0
22.04.2019 09:00:00 11,0 6,4 - - 0,0
22.04.2019 08:00:00 3,8 3,0 - - 0,0
22.04.2019 07:00:00 3,1 2,3 - - 0,0
22.04.2019 06:00:00 1,8 0,9 - - 0,0
22.04.2019 05:00:00 3,0 1,6 - - 0,0
22.04.2019 04:00:00 5,3 2,8 - - 0,0
22.04.2019 03:00:00 4,3 2,6 - - 0,0
22.04.2019 02:00:00 6,6 3,7 - - 0,0
22.04.2019 01:00:00 5,5 2,7 - - 0,0
22.04.2019 00:00:00 8,7 4,0 - - 0,0
21.04.2019 23:00:00 9,8 3,6 - - 0,0
21.04.2019 22:00:00 14,1 4,8 - - 0,0
21.04.2019 21:00:00 15,2 4,6 - - 0,0
21.04.2019 20:00:00 16,6 4,9 - - 0,0
21.04.2019 19:00:00 17,7 5,0 - - 0,0
21.04.2019 18:00:00 17,9 6,3 - - 0,0
21.04.2019 17:00:00 18,5 5,8 - - 0,0
21.04.2019 16:00:00 18,2 7,2 - - 0,0
21.04.2019 15:00:00 19,3 7,5 - - 0,0
21.04.2019 14:00:00 19,7 9,2 - - 0,0
21.04.2019 13:00:00 17,9 10,2 - - 0,0
21.04.2019 12:00:00 17,4 9,3 - - 0,0
21.04.2019 11:00:00 16,2 8,9 - - 0,0
21.04.2019 10:00:00 14,0 9,5 8,9 6,7 0,0
21.04.2019 09:00:00 12,0 10,9 - - 0,0
21.04.2019 08:00:00 8,3 8,2 - - 0,0
21.04.2019 07:00:00 6,4 6,2 - - 0,0
21.04.2019 06:00:00 6,0 5,8 - - 0,0
21.04.2019 05:00:00 6,3 5,9 - - 0,0
21.04.2019 04:00:00 7,4 6,7 - - 0,0
21.04.2019 03:00:00 7,9 6,9 - - 0,0
21.04.2019 02:00:00 9,9 9,4 - - 0,0
21.04.2019 01:00:00 10,0 8,9 - - 0,0
21.04.2019 00:00:00 10,7 9,1 - - 0,0
20.04.2019 23:00:00 11,9 9,2 - - 0,0
20.04.2019 22:00:00 11,7 9,2 - - 0,0
20.04.2019 21:00:00 12,4 9,0 - - 0,0
20.04.2019 20:00:00 15,2 9,5 - - 0,0
20.04.2019 19:00:00 16,9 9,8 - - 0,0
20.04.2019 18:00:00 18,9 9,8 - - 0,0
20.04.2019 17:00:00 21,1 9,1 - - 0,0
20.04.2019 16:00:00 21,5 9,7 - - 0,0
20.04.2019 15:00:00 20,8 8,4 - - 0,0
20.04.2019 14:00:00 20,9 7,7 - - 0,0
20.04.2019 13:00:00 19,4 7,7 - - 0,0
20.04.2019 12:00:00 19,0 9,1 - - 0,0
20.04.2019 11:00:00 16,9 8,8 - - 0,0
20.04.2019 10:00:00 15,5 7,9 8,0 6,2 0,0
20.04.2019 09:00:00 14,0 7,8 - - 0,0
20.04.2019 08:00:00 11,3 7,1 - - 0,0
20.04.2019 07:00:00 6,0 4,6 - - 0,0
20.04.2019 06:00:00 5,4 3,7 - - 0,0
20.04.2019 05:00:00 6,8 4,6 - - 0,0
20.04.2019 04:00:00 4,6 3,7 - - 0,0
20.04.2019 03:00:00 5,8 4,5 - - 0,0
20.04.2019 02:00:00 6,2 4,2 - - 0,0
20.04.2019 01:00:00 8,1 4,9 - - 0,0
20.04.2019 00:00:00 10,2 6,2 - - 0,0
19.04.2019 23:00:00 10,9 6,0 - - 0,0
19.04.2019 22:00:00 13,8 6,4 - - 0,0
19.04.2019 21:00:00 14,1 6,0 - - 0,0
19.04.2019 20:00:00 15,5 5,5 - - 0,0
19.04.2019 19:00:00 16,9 6,4 - - 0,0
19.04.2019 18:00:00 17,8 5,9 - - 0,0
19.04.2019 17:00:00 18,0 4,1 - - 0,0
19.04.2019 16:00:00 18,0 3,9 - - 0,0
19.04.2019 15:00:00 17,8 3,5 - - 0,0
19.04.2019 14:00:00 17,4 2,5 - - 0,0
19.04.2019 13:00:00 17,7 3,0 - - 0,0
19.04.2019 12:00:00 16,8 3,0 - - 0,0
19.04.2019 11:00:00 15,1 4,1 - - 0,0
19.04.2019 10:00:00 12,7 6,3 7,0 6,0 0,0
19.04.2019 09:00:00 5,9 3,5 - - 0,0
19.04.2019 08:00:00 2,4 1,6 - - 0,0
19.04.2019 07:00:00 2,3 1,0 - - 0,0
19.04.2019 06:00:00 1,8 0,2 - - 0,0
19.04.2019 05:00:00 2,6 1,3 - - 0,0
19.04.2019 04:00:00 2,5 1,0 - - 0,0
19.04.2019 03:00:00 2,7 0,8 - - 0,0
19.04.2019 02:00:00 2,8 0,9 - - 0,0
19.04.2019 01:00:00 2,8 0,6 - - 0,0
19.04.2019 00:00:00 3,2 0,6 - - 0,0
18.04.2019 23:00:00 4,1 0,9 - - 0,0
18.04.2019 22:00:00 5,3 1,2 - - 0,0
18.04.2019 21:00:00 7,9 0,8 - - 0,0
18.04.2019 20:00:00 10,0 1,8 - - 0,0
18.04.2019 19:00:00 13,2 2,0 - - 0,0
18.04.2019 18:00:00 14,1 1,8 - - 0,0
18.04.2019 17:00:00 15,0 1,3 - - 0,0
18.04.2019 16:00:00 14,5 0,1 - - 0,0
18.04.2019 15:00:00 15,2 3,1 - - 0,0
18.04.2019 14:00:00 15,0 1,2 - - 0,0
18.04.2019 13:00:00 15,8 2,5 - - 0,0
18.04.2019 12:00:00 15,8 1,0 - - 0,0
18.04.2019 11:00:00 15,1 0,7 - - 0,0
18.04.2019 10:00:00 9,3 4,7 6,7 6,0 0,0
18.04.2019 09:00:00 4,1 1,3 - - 0,0
18.04.2019 08:00:00 -0,5 -1,5 - - 0,0
18.04.2019 07:00:00 -1,9 -2,4 - - 0,0
18.04.2019 06:00:00 -2,1 -2,9 - - 0,0
18.04.2019 05:00:00 -1,9 -2,6 - - 0,0
18.04.2019 04:00:00 -2,0 -2,7 - - 0,0
18.04.2019 03:00:00 -1,6 -2,4 - - 0,0
18.04.2019 02:00:00 -1,8 -3,3 - - 0,0
18.04.2019 01:00:00 -1,1 -2,3 - - 0,0
18.04.2019 00:00:00 0,0 -2,0 - - 0,0
17.04.2019 23:00:00 1,4 -1,0 - - 0,0
17.04.2019 22:00:00 2,0 -0,6 - - 0,0
17.04.2019 21:00:00 4,8 -0,2 - - 0,0
17.04.2019 20:00:00 8,3 0,5 - - 0,0
17.04.2019 19:00:00 10,3 -0,3 - - 0,0
17.04.2019 18:00:00 11,4 0,4 - - 0,0
17.04.2019 17:00:00 11,5 -0,5 - - 0,0
17.04.2019 16:00:00 12,3 -1,2 - - 0,0
17.04.2019 15:00:00 10,5 -1,2 - - 0,0
17.04.2019 14:00:00 11,2 -1,1 - - 0,0
17.04.2019 13:00:00 11,0 0,6 - - 0,0
17.04.2019 12:00:00 10,1 0,8 - - 0,0
17.04.2019 11:00:00 8,4 0,3 - - 0,0
17.04.2019 10:00:00 6,9 2,4 6,0 5,9 0,0
17.04.2019 09:00:00 3,8 1,7 - - 0,0
17.04.2019 08:00:00 2,5 1,2 - - 0,0
17.04.2019 07:00:00 1,5 0,6 - - 0,0
17.04.2019 06:00:00 2,5 0,7 - - 0,0
17.04.2019 05:00:00 3,1 1,1 - - 0,0
17.04.2019 04:00:00 2,8 1,0 - - 0,0
17.04.2019 03:00:00 3,7 1,5 - - 0,0
17.04.2019 02:00:00 4,0 1,5 - - 0,0
17.04.2019 01:00:00 4,2 1,3 - - 0,0
17.04.2019 00:00:00 4,4 1,3 - - 0,0
16.04.2019 23:00:00 4,7 1,3 - - 0,0
16.04.2019 22:00:00 5,2 2,0 - - 0,0
16.04.2019 21:00:00 5,4 2,2 - - 0,0
16.04.2019 20:00:00 5,7 2,2 - - 0,0
16.04.2019 19:00:00 6,3 2,5 - - 0,0
16.04.2019 18:00:00 6,6 2,7 - - 0,0
16.04.2019 17:00:00 7,2 3,0 - - 0,0
16.04.2019 16:00:00 7,7 3,1 - - 0,0
16.04.2019 15:00:00 7,6 2,7 - - 0,0

tt = Température de l'air
td = dewpoint
tt -20cm = Température de l'air -20cm
tt -100cm = Température de l'air -100cm
rr = Quantités de précipitations

stations d'obs. à proximité